Regional Weather Roundup
Issued by NWS

Home | Current Version | Previous Version | Text Only | Print | Product List | Glossary On
Versions: 1 2 3 4 5 6 7 8 9 10 11 12 13 14 15 16 17 18 19 20 21 22 23 24 25 26 27 28 29 30 31 32 33 34 35 36 37 38 39 40 41 42 43 44 45 46 47 48 49 50
000
ASUS43 KTOP 211208
RWRKS

WEATHER ROUNDUP FOR KANSAS
NATIONAL WEATHER SERVICE GOODLAND KS
600 AM CST TUE FEB 21 2017

NOTE:  "FAIR" INDICATES FEW OR NO CLOUDS BELOW 12,000 FEET WITH NO
SIGNIFICANT WEATHER AND/OR OBSTRUCTIONS TO VISIBILITY.

KSZ001>006-013>018-027>032-041>047-211300-
NORTHWEST KANSAS

CITY           SKY/WX    TMP DP  RH WIND       PRES   REMARKS
GOODLAND       CLOUDY    46  11  24 S15       29.98F
6HR MIN TEMP:  40; 6HR MAX TEMP:  46;

HAYS           CLOUDY    29  26  89 W3        30.04S
HILL CITY      CLOUDY    30  24  78 W6        30.02S
6HR MIN TEMP:  28; 6HR MAX TEMP:  37;

RUSSELL        CLOUDY    29  26  89 SW8       30.02S
6HR MIN TEMP:  28; 6HR MAX TEMP:  40;

$$

KSZ061>065-074>080-084>089-211300-
SOUTHWEST KANSAS

CITY           SKY/WX    TMP DP  RH WIND       PRES   REMARKS
DODGE CITY     CLOUDY    33  21  61 SW7       30.05S
6HR MIN TEMP:  31; 6HR MAX TEMP:  39;

ELKHART          N/A     40  12  32 SW10        N/A  WCI  33
GARDEN CITY    CLOUDY    29  16  58 SW6       30.04S
6HR MIN TEMP:  29; 6HR MAX TEMP:  34;

GREAT BEND     CLOUDY    27  25  92 NW5       30.05R
LIBERAL        CLOUDY    30  14  51 CALM      30.05F
PRATT          CLOUDY    30  27  86 W10       30.05R WCI  21
6HR MIN TEMP:  29; 6HR MAX TEMP:  36;

$$

KSZ066>073-081>083-090>101-211300-
SOUTHEAST KANSAS

CITY           SKY/WX    TMP DP  RH WIND       PRES   REMARKS
CHANUTE        CLEAR     47  44  90 N7        29.95R
6HR MIN TEMP:  41; 6HR MAX TEMP:  50;

COFFEYVILLE    CLEAR     46  46 100 N8        29.95R
6HR MIN TEMP:  45; 6HR MAX TEMP:  50;

HUTCHINSON     CLOUDY    33  30  88 NW7       30.03R
6HR MIN TEMP:  32; 6HR MAX TEMP:  50;

MEDICINE LODGE   N/A     34  31  88 NW7       30.03S
NEWTON         CLEAR     38  37  97 N7        30.00F
PARSONS        CLEAR     46  45  96 N7        29.95R
6HR MIN TEMP:  42; 6HR MAX TEMP:  48;

WICHITA INTL   CLEAR     39  37  92 NW9       30.00S
6HR MIN TEMP:  39; 6HR MAX TEMP:  53;

WICHITA JABRA  CLEAR     42  38  85 NW6       29.99S
6HR MIN TEMP:  41; 6HR MAX TEMP:  51;

WICHITA MCCONL CLEAR     44  38  80 N6        29.99S
WINFIELD       CLEAR     41  39  93 NW7       30.00R
6HR MIN TEMP:  40; 6HR MAX TEMP:  51;

$$

KSZ007>012-019>026-033>040-048>060-102>105-211300-
NORTHEAST KANSAS

CITY           SKY/WX    TMP DP  RH WIND       PRES   REMARKS
CONCORDIA      CLOUDY    38  35  89 W9        30.02S
6HR MIN TEMP:  34; 6HR MAX TEMP:  47;

EMPORIA        CLEAR     43  40  89 NW3       29.96F
6HR MIN TEMP:  42; 6HR MAX TEMP:  51;

LAWRENCE       CLEAR     47  44  90 CALM      29.96S
6HR MIN TEMP:  42; 6HR MAX TEMP:  56;

MANHATTAN      CLEAR     32  31  96 CALM      30.00R
6HR MIN TEMP:  30; 6HR MAX TEMP:  48;

MARYSVILLE     PTCLDY    32  32 100 NW7       30.01R FOG
OLATHE IND     PTCLDY    48  44  86 NE8       29.96R
6HR MIN TEMP:  46; 6HR MAX TEMP:  54;

OLATHE EXE     PTCLDY    49  46  90 NE8       29.95R
6HR MIN TEMP:  49; 6HR MAX TEMP:  56;

SALINA         CLOUDY    36  32  85 CALM      30.03R
6HR MIN TEMP:  34; 6HR MAX TEMP:  46;

TOPEKA BILLARD CLEAR     46  40  79 NW6       29.96F
6HR MIN TEMP:  44; 6HR MAX TEMP:  53;

TOPEKA FORBES  CLEAR     41  38  89 N5        29.96F
6HR MIN TEMP:  41; 6HR MAX TEMP:  51;

$$



USA.gov is the U.S. government's official web portal to all federal, state and local government web resources and services.